CAPE
22 27 8 12 17 30 35 22 14 11 7 3 0 0 0 0 0 0 0 0 0 0 0 0 0 0 0 0 0 0 0 0 0 0 0 0 0 0 0 0 0 0 0 0 0 0 0 0 0 0 0 0 0 0
1 22 28 16 17 32 46 32 18 9 9 7 0 0 0 0 0 0 0 0 0 0 0 0 0 0 0 0 0 0 0 0 0 0 0 0 0 0 0 0 0 0 0 0 0 0 0 0 0 0 0 0 0 0
0 4 10 11 15 30 48 44 34 13 9 9 2 0 0 0 0 0 0 0 0 0 0 0 0 0 0 0 0 0 0 0 0 0 0 0 0 0 0 0 0 0 0 0 0 0 0 0 0 0 0 0 0 0
0 0 3 1 11 26 40 37 35 26 12 9 3 0 0 0 0 0 1 0 0 0 0 0 0 0 0 0 0 0 0 0 0 0 0 0 0 0 0 0 0 0 0 0 0 0 0 0 0 0 0 0 0 0
0 0 0 0 10 12 25 38 33 29 21 7 1 0 0 0 0 0 1 0 0 0 0 0 0 0 0 0 0 0 0 0 0 0 0 0 0 0 0 0 0 0 0 0 0 0 0 0 0 0 0 0 0 0
0 0 0 0 8 13 17 30 33 26 21 0 0 0 0 0 0 0 0 0 0 0 0 0 0 0 0 0 0 0 0 0 0 0 0 0 0 0 0 0 0 0 0 0 0 0 0 0 0 0 0 0 0 0
0 0 0 0 10 19 31 42 30 13 10 0 0 0 0 0 1 0 0 0 0 0 0 0 0 0 0 0 0 0 0 0 0 0 0 0 0 0 1 0 0 0 0 0 0 0 0 0 0 0 0 0 0 0
1 0 0 1 12 20 30 46 39 25 1 3 0 6 11 0 0 3 2 0 0 0 0 2 0 0 0 0 0 0 2 1 2 0 1 1 0 0 3 0 0 0 0 0 0 0 0 0 0 0 0 0 0 0
0 0 0 0 10 20 37 42 34 3 2 3 20 4 0 0 1 4 0 0 0 0 1 4 2 1 0 0 0 0 0 2 0 6 4 2 6 6 0 0 0 0 0 0 0 0 0 0 0 0 0 0 0 0
0 0 1 5 13 22 35 35 2 3 7 7 0 0 4 7 0 0 2 7 14 10 4 2 2 1 0 0 0 0 0 2 3 2 2 12 5 0 0 0 0 0 0 0 0 0 0 0 0 0 0 0 0 0
0 0 6 8 9 15 15 1 6 4 0 2 4 5 9 14 15 14 8 6 5 10 1 5 10 4 0 1 1 0 2 4 3 3 4 4 2 0 0 0 0 0 0 0 0 0 0 0 0 0 0 0 0 0
2 6 3 1 0 0 2 8 5 0 2 3 3 10 8 11 14 9 4 2 4 1 6 9 6 4 0 0 1 1 1 2 3 1 9 1 0 0 0 0 0 0 0 0 0 0 0 0 0 0 0 0 0 0
1 1 2 3 4 6 13 7 1 10 9 12 3 1 4 4 6 3 0 1 3 3 5 6 9 4 2 2 2 5 9 12 0 9 0 0 0 0 0 0 0 0 0 0 0 0 0 0 0 0 0 0 0 0
14 13 13 16 22 28 13 18 20 16 13 9 7 1 1 1 0 0 0 0 0 6 6 6 4 1 0 3 7 10 4 1 4 4 0 0 0 0 0 0 0 0 0 0 0 0 0 0 0 0 0 0 0 0
22 21 24 25 34 32 30 33 21 8 11 11 9 3 2 0 0 0 0 0 0 2 1 1 2 3 1 3 1 8 2 1 3 0 0 0 0 0 0 0 0 0 0 0 0 0 0 0 0 0 0 0 0 0
31 18 16 20 16 23 31 30 3 5 8 1 0 0 0 0 0 1 1 2 0 3 2 3 4 5 2 3 6 2 4 1 0 0 0 0 0 0 0 0 0 0 0 0 0 0 0 0 0 0 0 0 0 0
0 8 12 18 29 46 25 11 10 0 24 1 3 0 0 0 0 0 0 0 0 4 15 1 0 2 0 1 8 2 2 0 0 0 0 0 0 0 0 0 0 0 0 0 0 0 0 0 0 0 0 0 0 0
0 1 12 16 20 3 7 2 3 6 2 3 1 2 0 0 0 0 0 0 0 2 1 3 0 1 0 0 0 0 0 0 0 0 0 0 0 0 0 0 0 0 0 0 0 0 0 0 0 0 0 0 0 0
0 23 51 15 0 1 1 2 3 5 4 0 0 0 0 0 0 0 0 0 0 0 0 1 0 4 0 0 0 0 0 0 0 0 0 0 0 0 0 0 0 0 0 0 0 0 0 0 0 0 0 0 0 0
16 59 42 12 0 5 4 6 5 2 2 0 0 1 0 0 0 0 0 0 0 1 2 0 0 0 0 0 0 0 0 0 0 0 0 0 0 0 0 0 0 0 0 0 0 0 0 0 0 0 0 0 0 0
20 33 2 1 2 1 0 1 2 0 1 1 1 0 0 0 0 0 0 0 2 3 5 0 0 0 0 0 0 0 0 0 0 0 0 0 0 0 0 0 0 0 0 0 0 0 0 0 0 0 0 0 0 0
9 1 0 1 2 4 1 1 1 1 0 1 2 1 1 0 0 0 0 1 0 0 0 0 0 0 0 0 0 0 0 0 0 0 0 0 0 0 0 0 0 0 0 0 0 0 0 0 0 0 0 0 0 0
0 0 2 0 11 4 5 4 1 0 1 1 1 0 0 0 0 0 0 0 0 0 0 0 0 0 0 0 0 0 0 0 0 0 0 0 0 0 0 0 0 0 0 0 0 0 0 0 0 0 0 0 0 0
0 15 10 8 10 0 1 7 4 1 0 1 1 0 0 0 0 0 0 0 0 0 0 0 0 0 0 0 0 0 0 0 0 0 0 0 0 0 0 0 0 0 0 0 0 0 0 0 0 0 0 0 0 0
0 0 0 0 0 0 0 0 0 2 0 0 1 0 0 0 0 0 0 0 0 0 0 0 0 0 0 0 0 0 0 0 0 0 0 0 0 0 0 0 0 0 0 0 0 0 0 0 0 0 0 0 0 0
0 0 0 0 0 0 0 0 1 0 0 0 0 0 0 0 0 0 0 0 0 0 0 0 0 0 0 0 0 0 0 0 0 0 0 0 0 0 0 0 0 0 0 0 0 0 0 0 0 0 0 0 0 0
0 0 0 0 0 0 0 0 0 0 0 0 0 0 0 0 0 0 0 0 0 0 0 0 0 0 0 0 0 0 0 0 0 0 0 0 0 0 0 0 0 0 0 0 0 0 0 0 0 0 0 0 0 0
0 0 0 0 0 0 0 0 0 0 0 0 0 0 0 0 0 0 0 0 0 0 0 0 0 0 0 0 0 0 0 0 0 0 0 0 0 0 0 0 0 0 0 0 0 0 0 0 0 0 0 0 0 0
0 0 0 0 0 0 0 0 0 0 0 0 0 0 0 0 0 0 0 0 0 0 0 0 0 0 0 0 0 0 0 0 0 0 0 0 0 0 0 0 0 0 0 0 0 0 0 0 0 0 0 0 0 0
0 0 0 0 0 0 0 0 0 0 0 0 0 0 0 0 0 0 0 0 0 0 0 0 0 0 0 0 0 0 0 0 0 0 0 0 0 0 0 0 0 0 0 0 0 0 0 0 0 0 0 0 0 0
0 0 0 0 0 0 0 0 0 0 0 0 0 0 0 0 0 0 0 0 0 0 0 0 0 0 0 0 0 0 0 0 0 0 0 0 0 0 0 0 0 0 0 0 0 0 0 0 0 0 0 0 0 0
0 0 0 0 0 0 0 0 0 0 0 0 0 0 0 0 0 0 0 0 0 0 0 0 0 0 0 0 0 0 0 0 0 0 0 0 0 0 0 0 0 0 0 0 0 0 0 0 0 0 0 0 0 0
0 1 0 0 0 0 0 0 0 0 0 0 0 0 0 0 0 0 0 0 0 0 0 0 0 0 0 0 0 0 0 0 0 0 0 1 2 3 1 0 0 0 0 0 0 0 0 0 0 0 0 0 0 0
CIN
-15 -19 -16 -11 -9 -9 -4 -6 -7 -7 -8 -8 -0 -0 -0 -0 -0 -0 -0 -0 -0 -0 -0 -0 -0 -0 -0 -0 -0 -0 -0 -0 -0 -0 -0 -0 -0 -0 -0 -0 -0 -0 -0 -0 -0 -0 -0 -0 -0 -0 -0 -0 -0 -0
-8 -18 -19 -19 -14 -12 -3 -3 -2 -6 -10 -13 -0 -0 -0 -0 -0 -0 -0 -0 -0 -0 -0 -0 -0 -0 -0 -0 -0 -0 -0 -0 -0 -0 -0 -0 -0 -0 -0 -0 -0 -0 -0 -0 -0 -0 -0 -0 -0 -0 -0 -0 -0 -0
-0 -21 -18 -24 -21 -14 -5 -3 -2 -4 -12 -16 -20 -0 -0 -0 -0 -0 -0 -0 -0 -0 -0 -0 -0 -0 -0 -0 -0 -0 -0 -0 -0 -0 -0 -0 -0 -0 -0 -0 -0 -0 -0 -0 -0 -0 -0 -0 -0 -0 -0 -0 -0 -0
-0 -0 -23 -28 -26 -18 -14 -6 -4 -4 -5 -10 -18 -0 -0 -0 -0 -0 -0 -0 -0 -0 -0 -0 -0 -0 -0 -0 -0 -0 -0 -0 -0 -0 -0 -0 -0 -0 -0 -0 -0 -0 -0 -0 -0 -0 -0 -0 -0 -0 -0 -0 -0 -0
-0 -0 -0 -4 -26 -21 -29 -15 -6 -6 -4 -5 -17 -0 -0 -0 -0 -0 -0 -0 -0 -0 -0 -0 -0 -0 -0 -0 -0 -0 -0 -0 -0 -0 -0 -0 -0 -0 -0 -0 -0 -0 -0 -0 -0 -0 -0 -0 -0 -0 -0 -0 -0 -0
-0 -0 -0 -3 -23 -22 -27 -20 -15 -16 -8 -14 -0 -0 -0 -0 -0 -0 -0 -0 -0 -0 -0 -0 -0 -0 -0 -0 -0 -0 -0 -0 -0 -0 -0 -0 -0 -0 -0 -0 -0 -0 -0 -0 -0 -0 -0 -0 -0 -0 -0 -0 -0 -0
-0 -0 -0 -1 -20 -17 -21 -25 -27 -18 -15 -0 -0 -0 -0 -0 -0 -0 -0 -0 -0 -0 -0 -0 -0 -0 -0 -0 -0 -0 -0 -0 -0 -0 -0 -0 -0 -0 -0 -0 -0 -0 -0 -0 -0 -0 -0 -0 -0 -0 -0 -0 -0 -0
-0 -0 -0 -20 -15 -11 -20 -31 -18 -16 -0 -0 -0 -0 -0 -0 -0 -0 -0 -0 -0 -0 -0 -0 -0 -0 -0 -0 -0 -0 -0 -0 -0 -0 -0 -0 -0 -0 -0 -0 -0 -0 -0 -0 -0 -0 -0 -0 -0 -0 -0 -0 -0 -0
-0 -0 -0 -4 -11 -11 -21 -37 -28 -24 -0 -0 -0 -0 -0 -0 -0 -0 -0 -0 -0 -0 -0 -0 -0 -0 -0 -0 -0 -0 -0 -0 -0 -0 -0 -0 -0 -0 -0 -0 -0 -0 -0 -0 -0 -0 -0 -0 -0 -0 -0 -0 -0 -0
-0 -0 -6 -4 -14 -15 -35 -53 -26 -0 -0 -0 -0 -0 -0 -0 -0 -0 -2 -0 -0 -0 -0 -0 -1 -0 -0 -0 -0 -0 -0 -0 -0 -0 -0 -0 -0 -0 -0 -0 -0 -0 -0 -0 -0 -0 -0 -0 -0 -0 -0 -0 -0 -0
-0 -0 -1 -14 -27 -27 -16 -0 -0 -0 -0 -0 -0 -0 -0 -0 -0 -0 -0 -0 -0 -0 -0 -0 -0 -0 -0 -0 -0 -0 -0 -0 -0 -0 -0 -0 -0 -0 -0 -0 -0 -0 -0 -0 -0 -0 -0 -0 -0 -0 -0 -0 -0 -0
-5 -3 -4 -7 -0 -0 -0 -0 -0 -0 -0 -0 -0 -0 -0 -0 -0 -0 -0 -0 -0 -0 -0 -0 -0 -0 -0 -0 -0 -0 -0 -0 -0 -0 -0 -0 -0 -0 -0 -0 -0 -0 -0 -0 -0 -0 -0 -0 -0 -0 -0 -0 -0 -0
-0 -0 -0 -0 -0 -0 -0 -0 -0 -0 -0 -0 -0 -0 -0 -0 -0 -0 -0 -0 -0 -0 -0 -0 -0 -0 -0 -0 -0 -0 -0 -0 -0 -0 -0 -0 -0 -0 -0 -0 -0 -0 -0 -0 -0 -0 -0 -0 -0 -0 -0 -0 -0 -0
-0 -0 -0 -0 -0 -0 -0 -0 -0 -0 -0 -0 -0 -0 -0 -0 -0 -0 -0 -0 -0 -0 -0 -0 -0 -0 -0 -0 -0 -0 -0 -0 -0 -0 -0 -0 -0 -0 -0 -0 -0 -0 -0 -0 -0 -0 -0 -0 -0 -0 -0 -0 -0 -0
-0 -0 -0 -0 -0 -0 -0 -0 -0 -4 -0 -0 -0 -0 -0 -0 -0 -0 -0 -0 -0 -0 -0 -0 -0 -0 -0 -0 -0 -0 -0 -0 -0 -0 -0 -0 -0 -0 -0 -0 -0 -0 -0 -0 -0 -0 -0 -0 -0 -0 -0 -0 -0 -0
-0 -0 -0 -0 -0 -0 -0 -0 -4 -4 -4 -0 -0 -0 -0 -0 -0 -0 -0 -0 -0 -0 -0 -0 -0 -0 -0 -0 -0 -0 -0 -0 -0 -0 -0 -0 -0 -0 -0 -0 -0 -0 -0 -0 -0 -0 -0 -0 -0 -0 -0 -0 -0 -0
-0 -0 -0 -0 -0 -0 -4 -2 -15 -0 -0 -0 -0 -0 -0 -0 -0 -0 -0 -0 -0 -0 -0 -0 -0 -0 -0 -0 -0 -0 -0 -0 -0 -0 -0 -0 -0 -0 -0 -0 -0 -0 -0 -0 -0 -0 -0 -0 -0 -0 -0 -0 -0 -0
-1 -5 -0 -0 -0 -0 -0 -0 -4 -0 -0 -0 -0 -0 -0 -0 -0 -0 -0 -0 -0 -0 -0 -0 -0 -0 -0 -0 -0 -0 -0 -0 -0 -0 -0 -0 -0 -0 -0 -0 -0 -0 -0 -0 -0 -0 -0 -0 -0 -0 -0 -0 -0 -0
-0 -8 -0 -0 -0 -0 -0 -0 -0 -0 -0 -0 -0 -0 -0 -0 -0 -0 -0 -0 -0 -0 -0 -0 -6 -0 -0 -0 -0 -0 -0 -0 -0 -0 -0 -0 -0 -0 -0 -0 -0 -0 -0 -0 -0 -0 -0 -0 -0 -0 -0 -0 -0 -0
-20 -10 -0 -0 -0 -0 -0 -0 -0 -0 -0 -0 -0 -0 -0 -0 -0 -0 -0 -0 -0 -0 -0 -0 -0 -0 -0 -0 -0 -0 -0 -0 -0 -0 -0 -0 -0 -0 -0 -0 -0 -0 -0 -0 -0 -0 -0 -0 -0 -0 -0 -0 -0 -0
-11 -1 -0 -0 -0 -0 -0 -0 -0 -0 -0 -0 -0 -0 -0 -0 -0 -0 -0 -0 -0 -0 -1 -0 -0 -0 -0 -0 -0 -0 -0 -0 -0 -0 -0 -0 -0 -0 -0 -0 -0 -0 -0 -0 -0 -0 -0 -0 -0 -0 -0 -0 -0 -0
-2 -8 -0 -0 -0 -0 -0 -0 -0 -0 -0 -0 -0 -0 -0 -0 -0 -0 -0 -0 -0 -0 -0 -0 -0 -0 -0 -0 -0 -0 -0 -0 -0 -0 -0 -0 -0 -0 -0 -0 -0 -0 -0 -0 -0 -0 -0 -0 -0 -0 -0 -0 -0 -0
-0 -0 -0 -0 -0 -0 -0 -0 -0 -0 -0 -0 -0 -0 -0 -0 -0 -0 -0 -0 -0 -0 -0 -0 -0 -0 -0 -0 -0 -0 -0 -0 -0 -0 -0 -0 -0 -0 -0 -0 -0 -0 -0 -0 -0 -0 -0 -0 -0 -0 -0 -0 -0 -0
-0 -18 -5 -0 -0 -0 -0 -0 -0 -0 -0 -0 -0 -0 -0 -0 -0 -0 -0 -0 -0 -0 -0 -0 -0 -0 -0 -0 -0 -0 -0 -0 -0 -0 -0 -0 -0 -0 -0 -0 -0 -0 -0 -0 -0 -0 -0 -0 -0 -0 -0 -0 -0 -0
-0 -0 -2 -0 -0 -0 -0 -0 -0 -0 -0 -0 -0 -0 -0 -0 -0 -0 -0 -0 -0 -0 -0 -0 -0 -0 -0 -0 -0 -0 -0 -0 -0 -0 -0 -0 -0 -0 -0 -0 -0 -0 -0 -0 -0 -0 -0 -0 -0 -0 -0 -0 -0 -0
-0 -0 -0 -0 -0 -0 -0 -0 -0 -0 -0 -0 -0 -0 -0 -0 -0 -0 -0 -0 -0 -0 -0 -0 -0 -0 -0 -0 -0 -0 -0 -0 -0 -0 -0 -0 -0 -0 -0 -0 -0 -0 -0 -0 -0 -0 -0 -0 -0 -0 -0 -0 -0 -0
-0 -0 -0 -0 -0 -0 -0 -0 -0 -0 -0 -0 -0 -0 -0 -0 -0 -0 -0 -0 -0 -0 -0 -0 -0 -0 -0 -0 -0 -0 -0 -0 -0 -0 -0 -0 -0 -0 -0 -0 -0 -0 -0 -0 -0 -0 -0 -0 -0 -0 -0 -0 -0 -0
-0 -0 -0 -0 -0 -0 -0 -0 -0 -0 -0 -0 -0 -0 -0 -0 -0 -0 -0 -0 -0 -0 -0 -0 -0 -0 -0 -0 -0 -0 -0 -0 -0 -0 -0 -0 -0 -0 -0 -0 -0 -0 -0 -0 -0 -0 -0 -0 -0 -0 -0 -0 -0 -0
-0 -0 -0 -0 -0 -0 -0 -0 -0 -0 -0 -0 -0 -0 -0 -0 -0 -0 -0 -0 -0 -0 -0 -0 -0 -0 -0 -0 -0 -0 -0 -0 -0 -0 -0 -0 -0 -0 -0 -0 -0 -0 -0 -0 -0 -0 -0 -0 -0 -0 -0 -0 -0 -0
-0 -0 -0 -0 -0 -0 -0 -0 -0 -0 -0 -0 -0 -0 -0 -0 -0 -0 -0 -0 -0 -0 -0 -0 -0 -0 -0 -0 -0 -0 -0 -0 -0 -0 -0 -0 -0 -0 -0 -0 -0 -0 -0 -0 -0 -0 -0 -0 -0 -0 -0 -0 -0 -0
-0 -0 -0 -0 -0 -0 -0 -0 -0 -0 -0 -0 -0 -0 -0 -0 -0 -0 -0 -0 -0 -0 -0 -0 -0 -0 -0 -0 -0 -0 -0 -0 -0 -0 -0 -0 -0 -0 -0 -0 -0 -0 -0 -0 -0 -0 -0 -0 -0 -0 -0 -0 -0 -0
-0 -0 -0 -0 -0 -0 -0 -0 -0 -0 -0 -0 -0 -0 -0 -0 -0 -0 -0 -0 -0 -0 -0 -0 -0 -0 -0 -0 -0 -0 -0 -0 -0 -0 -0 -0 -0 -0 -0 -0 -0 -0 -0 -0 -0 -0 -0 -0 -0 -0 -0 -0 -0 -0
-0 -0 -0 -0 -0 -0 -0 -0 -0 -0 -0 -0 -0 -0 -0 -0 -0 -0 -0 -0 -0 -0 -0 -0 -0 -0 -0 -0 -0 -0 -0 -0 -0 -0 -0 -0 -0 -0 -0 -0 -1 -0 -0 -0 -0 -0 -0 -0 -0 -0 -0 -0 -0 -0
Wind_Speed
22 21 20 18 17 14 15 13 12 11 9 7 3 1 3 5 7 4 2 3 3 2 2 2 1 4 3 2 3 6 4 4 4 5 3 2 3 2 3 1 5 8 8 6 7 6 9 4 6 4 5 2 6 6
23 23 21 19 18 16 16 15 13 11 10 8 6 3 1 3 6 4 1 1 2 2 3 2 3 3 3 3 2 4 5 1 2 4 2 2 4 3 4 3 5 5 3 2 7 3 6 4 5 5 4 4 4 4
24 23 22 20 19 18 17 18 16 13 11 9 8 6 2 2 4 4 1 2 2 1 3 3 2 3 2 2 1 3 2 2 2 3 2 2 6 1 4 5 4 6 6 5 3 1 5 8 6 4 3 3 2 3
25 24 22 21 20 19 17 17 15 15 13 11 10 7 4 1 2 3 1 1 1 1 3 3 3 2 3 4 2 2 3 3 1 1 2 3 4 0 2 4 4 2 6 7 7 10 5 6 4 5 3 1 2 3
26 24 22 21 20 19 17 16 16 15 13 13 11 9 7 3 4 1 0 1 1 2 1 1 2 2 3 2 1 1 4 4 3 3 3 3 1 3 2 2 8 8 9 8 6 4 3 7 5 4 3 1 2 4
28 26 24 22 20 20 18 16 16 15 14 14 12 10 8 8 6 2 2 1 1 1 1 2 3 2 3 4 4 2 1 2 3 3 3 3 2 2 4 5 2 7 5 5 6 5 2 6 8 4 2 1 4 6
29 27 24 22 21 20 19 17 17 16 16 17 15 11 10 9 1 1 2 3 2 1 1 3 1 2 1 2 2 1 1 1 2 2 3 2 3 3 4 9 4 6 6 5 3 5 4 6 5 2 2 5 6 8
28 27 25 23 23 23 20 18 18 17 18 16 14 13 12 11 9 2 2 3 2 1 1 2 2 2 2 2 2 0 2 2 3 2 0 2 2 3 8 10 12 7 5 6 6 4 5 6 1 1 4 6 10 10
29 27 25 23 23 22 21 20 18 19 19 20 16 19 4 2 2 2 4 1 1 2 2 3 3 1 2 2 2 3 2 3 2 3 3 3 5 10 9 11 8 10 9 10 7 5 4 2 3 5 6 8 10 11
28 25 23 22 21 20 21 21 23 23 22 22 5 5 3 2 10 7 1 2 1 1 2 4 1 3 3 2 2 3 1 2 3 3 2 5 8 13 8 7 6 10 10 9 5 3 3 3 4 7 9 10 10 11
23 22 21 19 17 16 20 24 27 27 17 2 3 3 2 6 2 2 3 4 4 4 4 3 5 3 3 3 3 2 2 2 3 3 4 4 6 7 9 9 8 11 10 7 3 1 2 5 6 8 10 11 10 11
21 22 21 21 22 24 27 32 31 8 4 6 8 5 3 2 2 3 4 2 5 5 5 5 4 3 3 1 2 2 3 2 4 4 4 5 5 4 7 11 12 11 7 4 4 5 5 8 9 9 10 11 12 13
23 26 27 28 29 30 28 26 21 26 19 5 3 3 4 2 5 7 9 6 5 5 5 5 4 3 2 1 2 4 5 4 2 4 5 6 3 2 4 6 9 6 3 3 3 5 8 10 10 10 12 12 13 13
27 26 26 24 24 25 27 27 29 13 4 3 5 6 5 6 5 5 2 2 2 3 6 5 4 3 2 4 2 4 2 2 4 5 7 3 4 6 5 6 6 5 5 5 6 7 9 11 12 11 12 12 12 14
26 24 23 20 19 23 21 24 12 3 3 3 3 4 5 1 1 1 1 1 1 3 5 3 3 2 3 3 4 3 4 6 5 5 1 3 5 4 5 5 7 6 5 5 6 7 11 11 11 13 12 11 12 13
19 15 7 19 18 18 20 15 4 2 2 2 2 2 2 3 2 2 3 2 2 4 2 1 3 3 5 4 6 9 5 7 3 2 0 2 3 1 6 8 10 9 10 12 8 8 10 11 13 14 15 13 14 14
7 3 11 15 16 16 11 4 3 4 1 3 2 1 1 1 1 2 3 3 4 4 2 2 5 7 1 5 5 4 4 1 1 2 2 6 6 9 9 9 9 11 14 14 13 13 13 13 12 11 15 17 14 13
3 5 12 17 12 7 2 2 2 3 3 2 3 4 3 1 2 3 3 3 4 3 3 3 0 6 6 5 3 3 3 3 4 7 7 7 8 9 8 11 13 12 14 14 14 15 14 13 11 12 14 14 12 12
3 6 15 18 7 4 3 1 0 3 2 1 1 1 1 1 2 1 2 3 3 1 1 2 6 4 4 3 6 7 6 6 9 10 10 12 12 13 13 12 12 13 13 14 15 12 12 14 13 12 11 10 10 10
7 11 21 16 6 2 3 2 1 2 3 1 1 2 1 0 2 0 3 4 3 3 6 6 6 8 8 10 10 12 12 10 10 11 11 10 10 13 12 10 10 12 12 14 13 16 11 11 11 9 9 10 10 12
7 8 10 5 2 3 2 3 2 2 2 1 1 1 1 2 2 2 3 3 5 4 5 6 9 11 15 15 12 10 12 12 11 11 12 12 12 11 12 12 13 11 12 11 12 11 14 11 11 9 9 10 10 11
3 10 3 3 2 1 1 2 2 3 3 2 2 1 2 3 4 4 1 4 5 7 8 11 13 12 13 14 14 13 13 15 13 12 18 16 12 12 13 11 9 10 11 12 11 12 13 11 9 10 9 11 13 11
8 3 2 1 3 5 2 4 4 4 3 4 2 2 3 4 3 1 4 5 5 9 10 11 15 14 13 16 15 17 18 16 11 12 13 11 10 11 10 12 11 10 12 14 10 11 11 14 13 11 10 11 10 11
2 2 3 3 3 2 0 2 2 3 2 2 3 4 4 4 3 3 6 7 10 10 9 13 8 11 10 14 13 13 14 7 9 10 12 11 9 12 10 11 12 11 11 12 10 9 10 11 15 10 10 10 11 11
5 1 2 2 1 4 4 4 4 4 4 6 4 5 4 3 3 5 6 8 7 9 10 9 8 10 12 12 11 12 15 8 9 11 15 10 10 11 11 10 11 13 10 8 11 9 11 11 11 11 11 11 13 13
4 6 9 7 3 5 6 5 7 7 4 5 8 2 1 2 3 8 5 4 7 8 9 9 10 9 11 11 13 11 13 8 8 11 15 10 10 11 12 13 12 15 9 8 9 11 12 11 11 12 13 16 19 15
5 7 4 2 2 4 3 1 2 3 5 7 4 5 4 4 8 7 4 4 5 5 7 8 8 9 12 13 12 12 11 9 9 12 13 12 11 10 10 13 16 16 11 8 8 11 12 12 12 12 13 12 11 10
4 6 7 7 4 3 4 4 6 7 6 5 5 6 8 9 9 8 8 5 5 6 7 8 8 10 11 12 11 11 11 10 11 10 6 8 9 10 12 11 13 23 15 13 12 11 10 11 13 14 13 12 12 7
5 4 5 7 4 4 7 8 7 6 4 5 5 6 8 8 11 13 15 11 9 9 12 13 11 8 9 8 8 8 8 8 9 15 19 13 11 9 5 7 8 8 8 9 16 17 14 12 12 12 13 10 8 7
5 5 5 5 7 10 8 9 6 2 4 6 6 10 12 13 15 12 12 11 11 12 12 11 10 9 10 9 10 10 7 6 7 9 11 12 10 8 5 5 6 7 7 8 8 7 12 9 9 6 5 3 3 5
4 6 3 5 7 7 7 3 3 4 5 8 10 12 17 15 14 12 11 11 10 10 9 10 9 8 6 7 7 8 8 5 6 10 11 9 9 10 10 9 8 7 6 7 6 6 7 7 6 6 6 7 7 9
5 6 4 5 7 0 1 3 4 7 9 10 14 10 11 6 6 4 3 0 2 4 8 8 6 8 6 3 4 6 12 8 8 6 6 5 7 9 10 9 8 7 6 6 7 7 7 8 6 7 6 8 9 8
3 2 1 3 3 4 1 1 3 5 3 4 6 8 8 5 7 5 1 1 2 3 3 3 3 4 6 7 7 6 7 4 6 11 16 17 18 17 11 8 8 7 7 7 7 6 7 7 8 8 8 9 7 5
Wind_Direction
209 206 206 217 226 227 220 215 217 217 232 243 228 316 2 10 14 315 73 24 344 315 95 281 176 174 157 236 258 116 165 193 185 227 244 225 260 160 264 132 182 184 180 196 207 229 259 137 140 230 51 31 360 1
207 208 207 211 219 212 215 216 219 221 226 227 218 213 279 349 13 342 336 25 346 256 21 0 9 9 12 51 314 174 347 139 200 238 243 282 222 191 243 234 208 236 249 298 224 244 67 120 51 78 47 48 21 336
206 206 205 208 213 208 212 214 215 216 218 223 210 211 211 2 42 12 67 352 271 304 194 202 178 56 53 8 8 203 170 0 224 356 318 313 247 203 226 216 205 215 228 237 317 145 222 199 123 105 86 72 3 319
204 203 202 203 208 205 209 215 212 207 208 208 213 201 194 190 151 332 359 39 304 67 284 114 126 105 351 334 275 252 97 143 77 270 258 261 261 269 287 345 267 349 154 218 246 256 184 174 124 136 123 139 344 340
202 200 203 203 205 206 202 207 205 207 198 201 200 192 175 169 141 81 77 102 352 278 304 5 114 69 20 319 212 224 214 197 184 186 209 230 294 254 196 294 242 178 220 216 266 29 285 141 154 141 155 87 356 335
198 199 201 205 206 205 203 201 205 200 195 191 187 181 166 144 160 255 254 128 97 292 203 267 99 79 43 75 101 131 153 230 240 219 209 215 159 230 256 250 217 200 248 263 264 143 85 120 145 141 147 6 343 323
198 195 196 201 205 204 202 199 198 199 191 186 178 162 154 150 146 270 345 35 145 279 282 301 211 112 76 112 82 117 135 141 268 237 240 266 183 211 248 247 151 208 208 184 167 145 146 166 142 124 5 339 323 308
193 189 193 198 203 204 197 196 194 191 182 161 149 136 129 108 110 194 65 24 308 7 313 249 253 210 184 151 156 316 165 196 197 283 215 235 151 223 249 250 255 198 191 166 156 187 110 126 151 333 342 323 318 313
191 188 191 196 198 200 197 187 184 176 161 147 141 117 104 82 196 111 109 148 22 310 247 228 225 196 177 107 109 154 236 205 85 251 229 210 202 226 236 239 213 187 181 162 149 139 144 202 302 310 306 302 297 296
185 179 188 196 198 203 200 183 164 154 137 128 83 105 181 136 113 121 137 192 200 205 229 243 359 179 201 173 139 143 203 244 234 201 116 232 251 247 238 228 219 171 158 152 132 175 173 238 260 301 292 289 286 289
170 180 183 183 181 178 171 158 137 118 104 48 103 108 77 133 118 187 196 211 154 225 210 226 211 172 188 175 155 234 193 194 256 131 237 245 258 237 210 172 170 163 159 166 147 158 254 263 267 274 282 279 283 289
170 168 160 155 143 145 145 141 137 107 111 119 102 97 103 144 116 202 202 187 218 229 171 183 166 203 128 267 204 190 217 178 250 140 247 256 247 131 168 178 164 156 153 183 222 237 252 263 266 269 272 276 276 275
146 144 142 139 138 139 138 123 106 115 112 96 91 126 149 136 180 197 188 206 212 187 172 157 148 148 143 212 180 183 214 218 131 226 242 246 30 217 193 184 175 173 187 233 256 261 267 273 274 267 274 273 284 285
91 97 105 114 124 132 116 118 127 126 90 92 150 146 215 171 227 200 207 153 67 138 143 158 127 152 148 176 186 220 136 188 234 233 237 312 322 182 148 142 137 185 201 230 239 251 261 265 270 271 263 268 273 277
93 93 95 96 114 119 128 141 109 47 92 119 155 179 203 309 72 118 88 164 108 136 132 119 106 193 153 208 207 205 199 232 225 236 287 353 354 172 194 215 233 252 262 241 231 234 244 251 258 270 268 267 273 280
112 98 105 124 123 133 139 128 94 105 85 125 114 144 116 207 178 185 173 136 156 141 110 170 135 195 214 215 201 212 223 208 218 189 191 14 65 200 240 253 257 272 280 297 285 264 265 271 271 272 284 283 280 276
74 87 143 127 130 126 93 71 68 51 97 160 159 135 127 315 126 172 174 166 154 168 190 170 206 218 70 225 220 216 232 255 242 184 271 293 279 283 273 255 266 278 284 291 284 278 274 267 260 262 268 277 275 273
56 121 144 142 132 78 62 43 102 143 164 186 181 168 195 248 152 152 185 155 159 198 172 224 205 205 227 209 207 210 252 240 234 260 276 281 280 285 268 262 274 275 271 265 263 265 263 266 265 262 266 265 271 273
132 140 158 129 99 92 97 69 345 174 115 204 147 162 213 195 246 46 145 179 219 353 184 208 242 219 242 279 291 291 287 274 283 286 292 297 290 290 289 279 261 263 265 267 269 269 274 277 269 273 284 282 272 277
100 134 142 138 93 91 110 94 323 125 162 142 205 185 236 334 17 201 205 202 192 191 214 226 242 270 286 273 259 264 271 281 285 288 290 292 285 280 275 272 269 270 268 271 269 267 270 269 264 266 262 259 268 273
71 105 72 73 54 49 79 143 141 173 123 191 27 260 97 336 267 236 240 176 204 212 237 235 252 251 249 258 271 282 282 285 283 283 283 282 282 282 279 277 276 276 275 275 272 271 269 265 275 273 270 268 266 269
87 88 75 51 84 86 99 140 93 119 152 85 166 200 201 205 215 220 224 212 234 233 234 244 250 259 266 270 271 271 273 275 275 273 271 271 271 276 277 276 278 277 274 271 274 272 269 266 268 269 269 271 275 274
96 83 76 66 170 186 118 161 164 174 177 178 152 220 218 219 216 42 240 217 244 241 247 249 254 261 260 267 272 272 268 267 271 270 271 268 266 263 267 274 271 263 266 268 259 261 265 271 272 269 265 265 270 277
66 102 143 181 201 104 113 160 108 127 133 191 196 246 218 217 144 221 249 249 248 253 248 250 248 262 263 259 259 260 266 258 252 260 260 258 263 266 255 252 260 257 251 263 267 263 263 265 270 269 266 268 272 275
93 244 164 171 112 139 186 184 190 179 226 196 219 256 227 170 213 237 241 256 255 254 256 253 245 242 249 258 262 261 261 248 246 250 259 252 252 260 263 257 260 265 266 260 260 257 261 260 261 262 266 265 269 280
191 208 191 199 187 179 190 179 199 204 188 201 224 241 210 217 240 242 227 225 233 233 237 238 239 244 246 242 257 264 269 263 243 249 263 265 257 254 258 266 270 272 251 235 242 245 253 259 263 265 266 271 277 283
206 209 194 215 169 124 166 174 162 190 192 214 208 168 172 220 240 241 240 229 242 224 227 231 235 245 260 272 270 270 273 270 248 255 267 269 264 258 252 257 267 266 276 254 233 236 244 255 261 263 266 272 271 275
204 176 177 178 185 181 182 186 186 213 223 194 161 187 198 211 245 266 267 265 234 262 260 257 249 253 261 267 272 279 278 274 275 273 272 262 252 254 260 263 263 267 269 267 265 258 241 249 259 265 268 267 274 272
185 182 135 172 176 198 217 201 216 219 185 169 206 231 238 245 268 275 282 288 290 282 281 282 280 263 264 264 259 253 256 263 269 270 271 276 289 280 254 248 248 258 262 258 263 260 257 255 259 262 262 264 272 276
200 172 178 167 183 215 219 194 226 202 202 223 251 273 276 272 268 278 281 285 282 280 279 282 284 282 275 275 279 281 268 252 230 242 264 275 273 283 279 265 263 262 263 264 267 269 273 276 280 278 287 275 256 267
145 167 201 193 229 236 246 232 246 265 255 254 253 253 262 275 289 279 267 265 264 266 268 269 274 276 271 272 270 275 283 275 235 234 240 260 271 277 282 281 278 272 259 258 260 260 256 266 259 261 260 257 262 271
183 193 185 223 257 121 296 222 229 252 268 263 263 260 269 261 269 268 260 27 234 248 263 270 261 270 281 263 266 261 265 275 288 298 284 277 277 277 280 280 277 266 250 245 246 245 239 235 245 247 252 254 256 260
192 188 208 296 292 273 289 256 267 287 266 250 253 249 248 222 238 256 244 196 206 258 275 278 276 273 276 274 265 279 283 254 260 288 298 299 294 290 291 285 272 248 242 239 242 237 237 237 247 250 251 253 258 263